Pagosa Springs, CO

3:46 AM MDT on July 23, 2017 (GMT -0600)
Pagosa Springs

Weather History for KPSO - April, 2014

Change the Weather History Date:

Saturday, April 12, 2014

  Actual Average (KE33) Record (KE33)
Temperature  
Mean Temperature 44 °F -  
Max Temperature 61 °F 50 °F 68 °F (2006)
Min Temperature 28 °F 29 °F 14 °F (2008)
Degree Days  
Heating Degree Days 20    
Moisture  
Dew Point 17 °F    
Average Humidity 34    
Maximum Humidity 67    
Minimum Humidity 17    
Precipitation  
Precipitation 0.00 in - - ()
Sea Level Pressure  
Sea Level Pressure 29.96 in    
Wind  
Wind Speed 3 mph (WSW)    
Max Wind Speed 24 mph    
Max Gust Speed 39 mph    
Visibility 10 miles    
Events Rain , Thunderstorm    
Averages and records for this station are not official NWS values.
T = Trace of Precipitation, MM = Missing Value Source: NWS Daily Summary

Daily Weather History Graph

Daily Weather History Graph

Search for Another Location

Airport or City:

Trip Planner

Search our weather history database for the weather conditions in past years. The results will help you decide how hot, cold, wet, or windy it might be!

Date:

Astronomy

Apr. 12, 2014 Rise Set
Actual Time 6:37 AM MDT 7:40 PM MDT
Civil Twilight 6:11 AM MDT 8:07 PM MDT
Nautical Twilight 5:39 AM MDT 8:39 PM MDT
Astronomical Twilight 5:06 AM MDT 9:12 PM MDT
Moon 5:24 PM MDT (4/12) 5:02 AM MDT (4/12)
Length of Visible Light 13h 56m
Length of Day
13h 02m
Waxing Gibbous, 93% of the Moon is Illuminated
Apr 12
Waxing Gibbous
Apr 15
Full
Apr 22
Last Quarter
Apr 29
New
May 6
First Quarter

Hourly Weather History & Observations

Time (MDT) Temp. Windchill Dew Point Humidity Pressure Visibility Wind Dir Wind Speed Gust Speed Precip Events Conditions
12:15 AM 40.3 °F - 10.8 °F 30% 30.09 in 10.0 mi Calm Calm - N/A   Scattered Clouds
12:35 AM 39.6 °F - 9.9 °F 30% 30.08 in 10.0 mi Calm Calm - N/A   Scattered Clouds
12:55 AM 39.2 °F - 9.7 °F 30% 30.08 in 10.0 mi Calm Calm - N/A   Clear
1:15 AM 36.1 °F - 12.0 °F 37% 30.07 in 10.0 mi Calm Calm - N/A   Clear
1:35 AM 35.4 °F - 10.8 °F 36% 30.07 in 10.0 mi Calm Calm - N/A   Clear
1:55 AM 38.8 °F - 6.8 °F 27% 30.07 in 10.0 mi Calm Calm - N/A   Clear
2:15 AM 35.2 °F - 8.6 °F 33% 30.05 in 10.0 mi Calm Calm - N/A   Clear
2:35 AM 33.4 °F - 12.2 °F 42% 30.05 in 10.0 mi Calm Calm - N/A Thunderstorm Thunderstorm
2:55 AM 33.3 °F - 10.8 °F 39% 30.05 in 10.0 mi Calm Calm - N/A   Clear
3:15 AM 35.6 °F 30.7 °F 12.4 °F 38% 30.05 in 10.0 mi SSW 5.8 mph - N/A   Clear
3:35 AM 30.4 °F - 16.0 °F 55% 30.05 in 10.0 mi Calm Calm - N/A   Clear
3:55 AM 32.9 °F - 10.6 °F 40% 30.05 in 10.0 mi Calm Calm - N/A   Scattered Clouds
4:15 AM 31.5 °F - 13.1 °F 47% 30.04 in 10.0 mi Calm Calm - N/A   Scattered Clouds
4:35 AM 34.2 °F - 9.9 °F 36% 30.04 in 10.0 mi Calm Calm - N/A   Clear
4:55 AM 30.4 °F - 13.5 °F 50% 30.04 in 10.0 mi Calm Calm - N/A   Clear
5:15 AM 30.7 °F - 14.4 °F 51% 30.05 in 10.0 mi Calm Calm - N/A   Clear
5:35 AM 28.8 °F - 14.4 °F 55% 30.04 in 10.0 mi Calm Calm - N/A   Clear
5:55 AM 33.8 °F - 9.9 °F 37% 30.04 in 10.0 mi Calm Calm - N/A   Clear
6:15 AM 32.0 °F - 14.0 °F 48% 30.04 in 10.0 mi Calm Calm - N/A   Scattered Clouds
6:35 AM 31.8 °F - 14.5 °F 49% 30.05 in 10.0 mi Calm Calm - N/A   Mostly Cloudy
6:55 AM 32.5 °F - 14.5 °F 48% 30.05 in 10.0 mi Calm Calm - N/A   Overcast
7:15 AM 32.7 °F - 15.8 °F 50% 30.05 in 10.0 mi Calm Calm - N/A   Mostly Cloudy
7:35 AM 35.4 °F - 13.3 °F 40% 30.07 in 10.0 mi Calm Calm - N/A   Mostly Cloudy
7:55 AM 36.3 °F - 18.1 °F 48% 30.06 in 10.0 mi Calm Calm - N/A   Scattered Clouds
8:15 AM 42.1 °F 40.2 °F 12.2 °F 30% 30.05 in 10.0 mi NE 3.5 mph - N/A   Mostly Cloudy
8:35 AM 47.7 °F - 6.6 °F 19% 30.05 in 10.0 mi Calm Calm - N/A   Mostly Cloudy
8:55 AM 49.3 °F - 7.2 °F 18% 30.05 in 10.0 mi SE 3.5 mph - N/A   Scattered Clouds
9:15 AM 51.1 °F - 7.2 °F 17% 30.04 in 10.0 mi SE 3.5 mph - N/A   Scattered Clouds
9:35 AM 51.8 °F - 7.3 °F 17% 30.04 in 10.0 mi SSE 3.5 mph - N/A   Scattered Clouds
9:55 AM 52.0 °F - 8.4 °F 17% 30.03 in 10.0 mi ESE 3.5 mph - N/A   Mostly Cloudy
10:15 AM 55.0 °F - 11.5 °F 18% 30.03 in 10.0 mi ESE 4.6 mph - N/A   Mostly Cloudy
10:35 AM 54.0 °F - 9.1 °F 17% 30.03 in 10.0 mi South 6.9 mph - N/A   Mostly Cloudy
10:55 AM 55.6 °F - 11.7 °F 18% 30.02 in 10.0 mi South 8.1 mph - N/A   Scattered Clouds
11:15 AM 57.7 °F - 14.2 °F 18% 30.01 in 10.0 mi SW 6.9 mph - N/A   Clear
11:35 AM 58.6 °F - 15.6 °F 19% 30.00 in 10.0 mi SSW 10.4 mph - N/A   Clear
11:55 AM 59.2 °F - 15.8 °F 18% 29.98 in 10.0 mi SSW 12.7 mph 17.3 mph N/A   Clear
12:15 PM 59.9 °F - 16.3 °F 18% 29.97 in 10.0 mi South 5.8 mph 9.2 mph N/A   Clear
12:35 PM 60.1 °F - 15.6 °F 18% 29.95 in 10.0 mi SSE 4.6 mph 18.4 mph N/A   Scattered Clouds
12:55 PM 61.9 °F - 16.5 °F 17% 29.94 in 10.0 mi SSW 13.8 mph 27.6 mph N/A   Scattered Clouds
1:15 PM 61.2 °F - 17.1 °F 18% 29.92 in 10.0 mi SSW 11.5 mph 21.9 mph N/A   Scattered Clouds
1:35 PM 61.2 °F - 16.5 °F 18% 29.92 in 10.0 mi SW 16.1 mph 26.5 mph N/A   Scattered Clouds
1:55 PM 61.7 °F - 17.4 °F 18% 29.90 in 10.0 mi SW 12.7 mph 25.3 mph N/A   Scattered Clouds
2:15 PM 61.0 °F - 16.2 °F 18% 29.90 in 10.0 mi SSW 16.1 mph 20.7 mph N/A   Scattered Clouds
2:35 PM 59.0 °F - 16.7 °F 19% 29.91 in 10.0 mi SSW 19.6 mph 34.5 mph N/A   Mostly Cloudy
2:55 PM 60.3 °F - 16.2 °F 18% 29.89 in 10.0 mi WSW 12.7 mph 17.3 mph N/A   Scattered Clouds
3:15 PM 59.9 °F - 16.0 °F 18% 29.87 in 10.0 mi West 11.5 mph 19.6 mph N/A   Clear
3:35 PM 59.9 °F - 16.3 °F 18% 29.86 in 10.0 mi West 12.7 mph - N/A Thunderstorm Scattered Clouds
3:55 PM 52.5 °F - 27.9 °F 39% 29.87 in 10.0 mi NW 24.2 mph 39.1 mph N/A Rain , Thunderstorm Light Thunderstorms and Rain
4:15 PM 53.6 °F - 30.7 °F 42% 29.88 in 10.0 mi NNW 12.7 mph 27.6 mph N/A   Scattered Clouds
4:35 PM 54.0 °F - 27.0 °F 35% 29.86 in 10.0 mi NW 15.0 mph 26.5 mph N/A   Clear
4:55 PM 55.9 °F - 23.5 °F 29% 29.86 in 10.0 mi WNW 15.0 mph 20.7 mph N/A   Clear
5:15 PM 56.5 °F - 22.5 °F 27% 29.85 in 10.0 mi NNW 5.8 mph 18.4 mph N/A   Mostly Cloudy
5:35 PM 57.0 °F - 21.7 °F 26% 29.85 in 10.0 mi NW 4.6 mph - N/A Thunderstorm Overcast
5:55 PM 57.7 °F - 22.3 °F 25% 29.85 in 10.0 mi WSW 5.8 mph - N/A   Scattered Clouds
6:15 PM 56.3 °F - 21.7 °F 26% 29.85 in 10.0 mi SSW 3.5 mph - N/A   Scattered Clouds
6:35 PM 54.9 °F - 24.4 °F 31% 29.85 in 10.0 mi WNW 4.6 mph - N/A   Clear
6:55 PM 53.4 °F - 25.7 °F 34% 29.86 in 10.0 mi WNW 8.1 mph - N/A   Mostly Cloudy
7:15 PM 51.6 °F - 24.6 °F 35% 29.88 in 10.0 mi WNW 15.0 mph 26.5 mph N/A   Mostly Cloudy
7:35 PM 48.0 °F - 28.2 °F 46% 29.88 in 10.0 mi NNW 11.5 mph 27.6 mph N/A   Clear
7:55 PM 48.7 °F - 25.9 °F 41% 29.87 in 10.0 mi WSW 5.8 mph - N/A   Scattered Clouds
8:15 PM 51.3 °F - 20.7 °F 30% 29.86 in 10.0 mi NW 10.4 mph 16.1 mph N/A   Clear
8:35 PM 49.1 °F - 23.9 °F 37% 29.86 in 10.0 mi NNW 4.6 mph - N/A   Scattered Clouds
8:55 PM 48.6 °F - 24.1 °F 38% 29.86 in 10.0 mi Calm Calm - N/A   Mostly Cloudy
9:15 PM 46.0 °F 44.8 °F 27.1 °F 48% 29.87 in 10.0 mi NNW 3.5 mph - N/A   Scattered Clouds
9:35 PM 45.1 °F 42.8 °F 27.3 °F 50% 29.86 in 10.0 mi West 4.6 mph - N/A   Clear
9:55 PM 44.6 °F 43.1 °F 27.1 °F 50% 29.86 in 10.0 mi WNW 3.5 mph - N/A   Scattered Clouds
10:15 PM 43.7 °F - 26.8 °F 51% 29.85 in 10.0 mi Calm Calm - N/A   Scattered Clouds
10:35 PM 42.6 °F - 26.1 °F 52% 29.85 in 10.0 mi Calm Calm - N/A   Clear
10:55 PM 42.8 °F - 25.7 °F 51% 29.85 in 10.0 mi Calm Calm - N/A   Clear
11:15 PM 42.1 °F - 25.5 °F 52% 29.84 in 10.0 mi Calm Calm - N/A   Clear
11:35 PM 36.1 °F - 26.2 °F 67% 29.84 in 10.0 mi Calm Calm - N/A   Clear
11:55 PM 36.3 °F - 25.5 °F 65% 29.85 in 10.0 mi Calm Calm - N/A   Clear